Flag for U.S.A. Weather past 2 weeks in Hampton, Virginia, U.S.A.

Now
74 °F

Passing clouds.


Feels Like: 75 °F
Forecast: 67 / 74 °F
Wind: 8 mph from Northeast

Location: Langley Air Force Base

Current Time: Oct 1, 2014 at 2:38:00 PM

Latest Report: Oct 1, 2014 at 1:58 PM


Visibility: 10 mi

Pressure: 30.02 "Hg

Humidity: 73%

Dew point: 64 °F

Location of HamptonLocation

Historic Weather in Hampton — Graph

°F

Hampton temperature yesterday

Maximum temperature yesterday: 75 °F (at 2:58 PM)
Minimum temperature yesterday: 61 °F (at 6:03 AM)
Average temperature yesterday: 67 °F

Past Weeks' High & Low Weather Summary

 TemperatureHumidityPressure
High82 °F (Sep 21, 3:58 PM)100% (Sep 16, 10:58 PM)30.35 "Hg (Sep 16, 10:58 PM)
Low57 °F (Sep 28, 5:58 AM)43% (Sep 27, 3:58 PM)29.72 "Hg (Sep 21, 3:58 PM)
Average68 °F83%30.10 "Hg
* Reported Sep 16 12:58 PM — Oct 1 12:58 PM, Hampton, Weather by CustomWeather, © 2014

Note: Actual official high and low records may vary slightly from our data, if they occured in-between our weather recording intervals... More about our weather records

Advertising

Hampton weather history for previous 24 hours

 ConditionsComfort  
Time TempWeatherWind HumidityBarometerVisibility
12:58 PM
Oct 1
72 °FScattered clouds.13 mph77%30.04 "Hg10 mi
11:58 AM72 °FScattered clouds.14 mph80%30.04 "Hg10 mi
11:03 AM72 °FScattered clouds.8 mph78%30.02 "Hg10 mi
10:58 AM72 °FScattered clouds.9 mph77%30.04 "Hg10 mi
9:58 AM71 °FSunny.8 mph84%30.02 "Hg10 mi
8:58 AM68 °FScattered clouds.9 mph100%30.01 "Hg10 mi
7:58 AM66 °FPassing clouds.8 mphN/A30.00 "Hg10 mi
6:58 AM63 °FPassing clouds.3 mph100%29.97 "Hg7 mi
5:58 AM64 °FPassing clouds.5 mphN/A29.96 "Hg10 mi
5:03 AM61 °FPassing clouds.3 mph100%29.93 "Hg10 mi
4:58 AM61 °FPassing clouds.3 mph100%29.95 "Hg10 mi
4:03 AM61 °FClear.1 mph100%29.92 "Hg8 mi
3:58 AM61 °FClear.1 mph100%29.94 "Hg9 mi
2:58 AM62 °FPassing clouds.6 mph100%29.95 "Hg10 mi
1:58 AM62 °FClear.6 mph100%29.95 "Hg10 mi
12:58 AM62 °FPassing clouds.6 mph100%29.95 "Hg10 mi
11:58 PM
Sep 30
63 °FClear.2 mph100%29.95 "Hg10 mi
10:58 PM63 °FClear.2 mph100%29.94 "Hg10 mi
9:58 PM64 °FClear.6 mph100%29.94 "Hg10 mi
8:58 PM65 °FClear.5 mph100%29.93 "Hg10 mi
7:58 PM67 °FClear.2 mph99%29.91 "Hg10 mi
6:58 PM69 °FSunny.6 mph95%29.90 "Hg10 mi
5:58 PM72 °FSunny.8 mph83%29.90 "Hg10 mi
4:58 PM74 °FSunny.10 mph75%29.89 "Hg10 mi
3:58 PM75 °FSunny.8 mph66%29.90 "Hg10 mi
2:58 PM75 °FSunny.8 mph63%29.90 "Hg10 mi
Weather by CustomWeather, © 2014

See weather overviewHow to use our weather pages